Location: Zürich
(47.3769°N, 8.5417°E)
Time: 09:17:22
(UTC+02:00)

ISS - Pass Details

Date: 24 May 2021
Orbit: 417 x 422 km, 51.6° (Epoch: 13 June)

Event Time Altitude Azimuth Distance (km) Brightness Sun altitude
Rises 22:58:43 0° 292° (WNW) 2,366 1.1 -14.4°
Reaches altitude 10° 23:00:52 10° 297° (WNW) 1,502 0.0 -14.6°
Maximum altitude 23:04:10 52° 16° (NNE) 527 -3.1 -14.9°
Enters shadow 23:06:34 17° 89° (E) 1,153 -1.8 -15.1°
